Location: Castiglione Fibocchi
(43.5333°N, 11.7667°E)
Time: 18:53:31
(UTC+00:00)

Cosmos 1455 - Pass Details

Date: 15 August 2020
Orbit: 498 x 523 km, 82.5° (Epoch: 20 September)

Event Time Altitude Azimuth Distance (km) Brightness Sun altitude
Rises 03:42:50 0° 188° (S) 2,638 5.5 -6.7°
Reaches altitude 10° 03:44:57 10° 188° (S) 1,756 4.6 -6.4°
Maximum altitude 03:48:49 87° 273° (W) 531 2.2 -5.7°
Drops below altitude 10° 03:52:43 10° 8° (N) 1,771 5.4 -5.1°
Sets 03:54:52 0° 8° (N) 2,663 6.3 -4.7°
